Location: Drayton Valley
(53.2170°N, 114.9830°W)
Time: 16:48:47
(UTC-07:00)

Amateur Radio Satellites - All Passes

Search period start: 22 January 2018 16:18
Search period end: 23 January 2018 16:18
Location: Drayton Valley, 53.2170°N, 114.9830°W

Satellite Date Start Highest point End Downlink Frequencies (MHz)
Time Altitude Azimuth
BEESAT 3 22 Jan 16:26:39 16:30:14 31° 31° (NNE) 16:33:46 437.485
UKube-1 22 Jan 16:30:31 16:34:04 26° 300° (WNW) 16:37:36 .
KAITUO 1B 22 Jan 16:36:30 16:38:48 16° 59° (ENE) 16:41:06 145.475/437.950
AO-85 22 Jan 16:36:36 16:39:54 20° 2° (N) 16:43:24 145.980
XW-2F 22 Jan 16:40:59 16:43:53 21° 62° (ENE) 16:46:47 145.980 - 146.000
NUDT-PHONESAT 22 Jan 16:43:37 16:46:05 17° 60° (ENE) 16:48:33 437.300
DX 1 22 Jan 16:47:28 16:49:48 14° 307° (NW) 16:52:08 434.975-435.025
DOVE 4 22 Jan 16:48:27 16:52:36 57° 259° (W) 16:56:43 437.250
KKS-1 22 Jan 16:49:45 16:51:22 12° 85° (E) 16:52:59 437.445
NO-84 22 Jan 16:50:31 16:51:44 12° 136° (SE) 16:52:56 435.350 FM
XW-2D 22 Jan 16:51:55 16:55:14 28° 65° (ENE) 16:58:32 145.860 - 145.880
ITUPSAT 1 22 Jan 16:57:30 17:02:19 69° 289° (WNW) 17:07:05 437.325
HO-68 22 Jan 17:04:37 17:10:57 36° 54° (NE) 17:17:17 435.675
SEEDS 22 Jan 17:08:05 17:09:34 12° 53° (NE) 17:11:05 437.485
XW-2B 22 Jan 17:09:16 17:12:51 39° 68° (ENE) 17:16:26 145.730 - 145.750
MOZHAYETS 4 22 Jan 17:10:22 17:14:29 32° 297° (WNW) 17:18:34
AO-7 22 Jan 17:10:53 17:16:31 19° 275° (W) 17:22:10 .
M-CUBED/EXP-1 PRIME 22 Jan 17:15:26 17:18:43 22° 260° (W) 17:21:51 437.505
CUBESAT XI-V 22 Jan 17:18:11 17:22:49 79° 289° (WNW) 17:27:25 437.345
BEESAT 2 22 Jan 17:19:22 17:23:01 31° 31° (NNE) 17:26:38 435.950
CUTE 1.7 + AOD 2 22 Jan 17:22:25 17:25:43 22° 60° (ENE) 17:29:00 437.475
PCSat 22 Jan 17:24:20 17:29:33 45° 39° (NE) 17:34:45 145.827
BEESAT 22 Jan 17:36:10 17:40:30 35° 298° (WNW) 17:44:49 436.000
XW-2C 22 Jan 17:39:28 17:43:17 82° 75° (ENE) 17:47:07 145.795 - 145.815
CUTE-I 22 Jan 17:39:46 17:45:03 73° 70° (ENE) 17:50:22 437.470
LilacSat-2 22 Jan 17:39:49 17:43:41 89° 74° (ENE) 17:47:33 437.200
CUBEBUG 2 22 Jan 17:54:27 17:58:22 30° 62° (ENE) 18:02:24 437.445
UWE-3 22 Jan 17:56:14 17:59:38 21° 58° (ENE) 18:03:05 435.000/436.395/437.385
BEESAT 3 22 Jan 18:04:06 18:07:59 55° 232° (SW) 18:11:46 437.485
XW-2A 22 Jan 18:07:15 18:08:37 12° 57° (ENE) 18:09:58 145.665 - 145.685
KAITUO 1B 22 Jan 18:08:35 18:12:20 68° 258° (WSW) 18:16:04 145.475/437.950
XW-2F 22 Jan 18:14:03 18:17:43 47° 260° (W) 18:21:25 145.980 - 146.000
ZACube-1 22 Jan 18:15:37 18:18:46 19° 57° (ENE) 18:21:56 437.345
NUDT-PHONESAT 22 Jan 18:15:51 18:19:32 60° 259° (WSW) 18:23:14 437.300
AAUSAT CUBESAT 2 22 Jan 18:16:52 18:20:00 21° 61° (ENE) 18:23:08 437.432
AO-85 22 Jan 18:17:30 18:21:38 30° 26° (NNE) 18:26:04 145.980
AO-73 22 Jan 18:21:06 18:24:14 19° 57° (ENE) 18:27:25 145.935
KKS-1 22 Jan 18:24:13 18:28:41 78° 104° (ESE) 18:33:09 437.445
NO-84 22 Jan 18:25:27 18:28:23 54° 154° (SSE) 18:31:12 435.350 FM
XW-2D 22 Jan 18:25:51 18:29:20 32° 264° (W) 18:32:49 145.860 - 145.880
RS-15 22 Jan 18:29:27 18:40:03 42° 250° (WSW) 18:50:09 29.354- 29.394
STARS 22 Jan 18:34:20 18:38:35 44° 99° (E) 18:42:49 437.465
ITUPSAT 1 22 Jan 18:36:44 18:39:19 15° 310° (NW) 18:41:55 437.325
SEEDS 22 Jan 18:40:19 18:44:29 68° 73° (ENE) 18:48:40 437.485
XW-2B 22 Jan 18:44:03 18:47:10 23° 267° (W) 18:50:16 145.730 - 145.750
HO-68 22 Jan 18:51:11 18:58:19 68° 255° (WSW) 19:05:29 435.675
Oscar 11 22 Jan 18:51:48 18:55:08 22° 60° (ENE) 18:58:28 .
CUBESAT XI-V 22 Jan 18:56:52 18:59:29 15° 307° (NW) 19:02:04 437.345
BEESAT 2 22 Jan 18:57:00 19:00:59 58° 232° (SW) 19:04:54 435.950
CUTE 1.7 + AOD 2 22 Jan 18:57:02 19:01:14 56° 260° (W) 19:05:26 437.475
PCSat 22 Jan 19:07:51 19:13:05 49° 240° (WSW) 19:18:16 145.827
XW-2C 22 Jan 19:16:29 19:18:00 12° 273° (W) 19:19:31 145.795 - 145.815
LilacSat-2 22 Jan 19:17:20 19:18:33 11° 274° (W) 19:19:44 437.200
CUTE-I 22 Jan 19:21:38 19:25:40 22° 270° (W) 19:29:43 437.470
FO-29 22 Jan 19:25:02 19:27:20 13° 83° (E) 19:29:37 435.910
STRAND 1 22 Jan 19:27:21 19:31:44 27° 93° (E) 19:36:06 437.568
CUBEBUG 2 22 Jan 19:30:36 19:34:51 43° 263° (W) 19:39:16 437.445
UWE-3 22 Jan 19:31:09 19:35:38 68° 258° (WSW) 19:40:16 435.000/436.395/437.385
XW-2A 22 Jan 19:37:21 19:40:47 80° 257° (WSW) 19:44:13 145.665 - 145.685
ZACube-1 22 Jan 19:50:00 19:54:31 78° 257° (WSW) 19:59:07 437.345
AAUSAT CUBESAT 2 22 Jan 19:51:05 19:55:08 54° 260° (W) 19:59:12 437.432
AO-73 22 Jan 19:55:26 19:59:56 78° 255° (WSW) 20:04:32 145.935
AO-85 22 Jan 19:57:47 20:02:36 89° 226° (SW) 20:07:46 145.980
KKS-1 22 Jan 20:01:42 20:04:45 18° 304° (NW) 20:07:48 437.445
NO-84 22 Jan 20:02:41 20:05:33 59° 354° (N) 20:08:21 435.350 FM
DELFI C3 22 Jan 20:08:33 20:11:39 23° 62° (ENE) 20:14:45 145.870
STARS 22 Jan 20:10:59 20:14:46 28° 299° (WNW) 20:18:33 437.465
SEEDS 22 Jan 20:17:54 20:20:37 17° 271° (W) 20:23:22 437.485
Max Valier Satellite 22 Jan 20:21:22 20:24:11 21° 62° (ENE) 20:27:01 145.860
Oscar 11 22 Jan 20:26:37 20:30:55 59° 259° (W) 20:35:15 .
ISS 22 Jan 20:31:15 20:32:16 11° 140° (SE) 20:33:17 437.550
EO-88 22 Jan 20:35:07 20:37:47 19° 62° (ENE) 20:40:28 145.990 - 145.960
HO-68 22 Jan 20:43:14 20:47:26 16° 277° (W) 20:51:40 435.675
STRAND 1 22 Jan 21:06:12 21:11:15 55° 292° (WNW) 21:16:15 437.568
FO-29 22 Jan 21:08:14 21:13:31 77° 105° (ESE) 21:18:44 435.910
UWE-3 22 Jan 21:12:16 21:13:01 10° 278° (W) 21:13:46 435.000/436.395/437.385
YUBILEINY 22 Jan 21:15:04 21:19:14 14° 66° (ENE) 21:23:23 435.215
ESTCUBE 1 22 Jan 21:26:24 21:28:55 15° 53° (NE) 21:31:27 437.505/2401.250
ZACube-1 22 Jan 21:29:47 21:31:35 12° 276° (W) 21:33:24 437.345
AO-73 22 Jan 21:35:11 21:36:58 12° 276° (W) 21:38:46 145.935
AO-85 22 Jan 21:39:00 21:42:33 20° 245° (WSW) 21:46:15 145.980
NO-84 22 Jan 21:39:59 21:42:50 80° 15° (NNE) 21:45:40 435.350 FM
DELFI C3 22 Jan 21:42:25 21:46:10 44° 261° (W) 21:49:56 145.870
nSIGHT-1 22 Jan 21:42:55 21:45:50 34° 158° (SSE) 21:48:45 .
LO-87 22 Jan 21:47:30 21:50:01 18° 61° (ENE) 21:52:32 145.935 - 145.965
TIGRISAT 22 Jan 21:53:05 21:57:17 31° 94° (E) 22:01:26 435.000
Max Valier Satellite 22 Jan 21:54:08 21:57:44 46° 261° (W) 22:01:23 145.860
ISS 22 Jan 22:05:01 22:08:04 37° 158° (SSE) 22:11:07 437.550
EO-88 22 Jan 22:07:36 22:11:08 47° 260° (W) 22:14:43 145.990 - 145.960
UNISAT 6 22 Jan 22:08:50 22:13:22 44° 98° (E) 22:17:51 437.425
SPROUT 22 Jan 22:31:56 22:34:25 15° 55° (NE) 22:36:55 437.525
AIST 2D 22 Jan 22:44:05 22:44:41 10° 86° (E) 22:45:16 435.315
STRAND 1 22 Jan 22:47:09 22:49:24 13° 313° (NW) 22:51:40 437.568
VELOX 1 22 Jan 22:52:19 22:54:51 15° 54° (NE) 22:57:23 145.980
FO-29 22 Jan 22:54:14 22:58:07 21° 306° (NW) 23:01:57 435.910
ESTCUBE 1 22 Jan 23:00:32 23:05:03 80° 73° (ENE) 23:09:35 437.505/2401.250
YUBILEINY 22 Jan 23:05:29 23:14:00 56° 90° (E) 23:22:29 435.215
PRISM 22 Jan 23:15:08 23:19:03 43° 99° (E) 23:22:57 437.425
NO-84 22 Jan 23:17:20 23:19:45 26° 215° (SW) 23:22:12 435.350 FM
nSIGHT-1 22 Jan 23:18:37 23:21:46 66° 177° (S) 23:24:55 .
LO-87 22 Jan 23:19:36 23:23:05 50° 260° (W) 23:26:37 145.935 - 145.965
TIGRISAT 22 Jan 23:29:38 23:34:06 44° 293° (WNW) 23:38:32 435.000
POLYITAN 1 22 Jan 23:40:42 23:43:27 16° 88° (E) 23:46:11 437.675
ISS 22 Jan 23:41:04 23:44:20 67° 177° (S) 23:47:34 437.550
UNISAT 6 22 Jan 23:45:48 23:49:56 31° 297° (WNW) 23:54:03 437.425
NANOSAT C BR1 22 Jan 23:53:51 23:56:57 19° 90° (E) 00:00:01 145.865
SPROUT 23 Jan 00:05:26 00:09:42 90° 7° (N) 00:14:00 437.525
QB50P2 23 Jan 00:09:53 00:13:46 32° 96° (E) 00:17:37 145.880/145.840
AIST 2D 23 Jan 00:14:52 00:18:21 80° 286° (WNW) 00:21:48 435.315
UKube-1 23 Jan 00:20:21 00:22:55 16° 54° (NE) 00:25:29 .
VELOX 1 23 Jan 00:26:16 00:30:40 86° 71° (ENE) 00:35:04 145.980
DUCHIFAT 1 23 Jan 00:35:37 00:39:39 39° 98° (E) 00:43:38 145.980
DX 1 23 Jan 00:35:46 00:39:29 29° 62° (ENE) 00:43:14 434.975-435.025
ESTCUBE 1 23 Jan 00:39:39 00:42:25 16° 272° (W) 00:45:12 437.505/2401.250
EO-79 23 Jan 00:39:45 00:43:59 54° 101° (E) 00:48:10 145.935-145.965
O/OREOS (USA 219) 23 Jan 00:43:10 00:47:28 47° 112° (ESE) 00:51:47 437.305
PRISM 23 Jan 00:50:46 00:54:08 25° 298° (WNW) 00:57:31 437.425
nSIGHT-1 23 Jan 00:54:42 00:57:46 45° 197° (SSW) 01:00:49 .
ITUPSAT 1 23 Jan 00:59:49 01:00:30 10° 45° (NE) 01:01:10 437.325
YUBILEINY 23 Jan 01:02:43 01:11:06 46° 294° (WNW) 01:19:30 435.215
MOZHAYETS 4 23 Jan 01:05:58 01:08:39 15° 53° (NE) 01:11:21
Oscar 19 23 Jan 01:09:25 01:12:58 18° 88° (E) 01:16:29 437.125/150
Gurwin Techsat 1B 23 Jan 01:14:13 01:17:29 16° 86° (E) 01:20:45 435.225
POLYITAN 1 23 Jan 01:15:25 01:19:43 72° 287° (WNW) 01:23:59 437.675
ISS 23 Jan 01:17:29 01:20:38 45° 198° (SSW) 01:23:46 437.550
AO-91 23 Jan 01:27:27 01:31:17 28° 95° (E) 01:35:25 145.960
BUGSAT 1 23 Jan 01:27:42 01:31:36 34° 96° (E) 01:35:29 437.445
NANOSAT C BR1 23 Jan 01:28:48 01:33:02 60° 290° (WNW) 01:37:14 145.865
50 SAT 23 Jan 01:31:13 01:34:18 78° 74° (ENE) 01:37:25 437.505
BEESAT 23 Jan 01:34:48 01:38:01 18° 54° (NE) 01:41:15 436.000
SPROUT 23 Jan 01:44:17 01:46:15 13° 274° (W) 01:48:12 437.525
QB50P2 23 Jan 01:45:39 01:49:35 36° 295° (WNW) 01:53:29 145.880/145.840
AIST 2D 23 Jan 01:50:38 01:50:53 10° 304° (NW) 01:51:06 435.315
UKube-1 23 Jan 01:54:02 01:58:20 90° 189° (S) 02:02:40 .
VELOX 1 23 Jan 02:05:24 02:07:43 14° 273° (W) 02:10:04 145.980
DX 1 23 Jan 02:11:27 02:15:33 41° 261° (W) 02:19:41 434.975-435.025
DUCHIFAT 1 23 Jan 02:11:28 02:15:12 30° 297° (WNW) 02:18:53 145.980
EO-79 23 Jan 02:16:04 02:19:26 23° 300° (WNW) 02:22:48 145.935-145.965
O/OREOS (USA 219) 23 Jan 02:23:03 02:27:04 31° 313° (NW) 02:31:05 437.305
nSIGHT-1 23 Jan 02:31:28 02:33:24 15° 216° (SW) 02:35:19 .
ITUPSAT 1 23 Jan 02:32:39 02:37:13 46° 66° (ENE) 02:41:49 437.325
MOZHAYETS 4 23 Jan 02:40:28 02:45:06 79° 73° (ENE) 02:49:47
Oscar 19 23 Jan 02:47:44 02:52:57 82° 287° (WNW) 02:58:07 437.125/150
CUBESAT XI-V 23 Jan 02:50:32 02:54:42 33° 63° (ENE) 02:58:52 437.345
POLYITAN 1 23 Jan 02:52:49 02:54:45 13° 308° (NW) 02:56:41 437.675
Gurwin Techsat 1B 23 Jan 02:52:53 02:58:15 86° 106° (ESE) 03:03:34 435.225
ISS 23 Jan 02:54:36 02:56:33 15° 217° (SW) 02:58:29 437.550
BUGSAT 1 23 Jan 03:03:07 03:06:56 33° 296° (WNW) 03:10:45 437.445
AO-91 23 Jan 03:03:41 03:07:52 47° 291° (WNW) 03:12:30 145.960
YUBILEINY 23 Jan 03:06:05 03:10:49 15° 323° (NW) 03:15:34 435.215
NANOSAT C BR1 23 Jan 03:06:41 03:07:53 11° 309° (NW) 03:09:06 145.865
AO-7 23 Jan 03:08:41 03:15:39 28° 91° (E) 03:22:32 .
BEESAT 23 Jan 03:10:24 03:15:11 88° 254° (WSW) 03:20:01 436.000
UKube-1 23 Jan 03:33:00 03:35:00 13° 273° (W) 03:37:01 .
KKS-1 23 Jan 03:52:37 03:56:11 25° 59° (ENE) 03:59:47 437.445
ITAMSAT 1 23 Jan 03:59:23 04:04:02 32° 95° (E) 04:08:40 435.822/435.867
STARS 23 Jan 04:02:40 04:05:10 15° 53° (NE) 04:07:41 437.465
O/OREOS (USA 219) 23 Jan 04:07:20 04:07:57 10° 337° (NNW) 04:08:34 437.305
ITUPSAT 1 23 Jan 04:11:01 04:15:13 30° 266° (W) 04:19:27 437.325
MOZHAYETS 4 23 Jan 04:19:53 04:22:50 17° 272° (W) 04:25:49
CUBESAT XI-V 23 Jan 04:27:34 04:31:59 41° 263° (W) 04:36:25 437.345
Oscar 19 23 Jan 04:28:07 04:31:34 18° 308° (NW) 04:34:59 437.125/150
Gurwin Techsat 1B 23 Jan 04:33:41 04:37:36 21° 307° (NW) 04:41:30 435.225
DOVE 4 23 Jan 04:40:24 04:43:52 23° 92° (E) 04:47:27 437.250
BEESAT 23 Jan 04:51:00 04:53:41 15° 274° (W) 04:56:21 436.000
AO-7 23 Jan 05:01:00 05:09:27 87° 292° (WNW) 05:17:48 .
STRAND 1 23 Jan 05:12:52 05:15:51 16° 50° (NE) 05:18:49 437.568
SO-50 23 Jan 05:13:23 05:17:05 26° 118° (ESE) 05:20:50 436.795
KKS-1 23 Jan 05:28:10 05:32:29 53° 259° (W) 05:36:51 437.445
STARS 23 Jan 05:36:30 05:40:52 85° 73° (ENE) 05:45:16 437.465
ITAMSAT 1 23 Jan 05:38:42 05:43:42 48° 295° (WNW) 05:48:41 435.822/435.867
XW-2F 23 Jan 05:41:06 05:42:38 12° 87° (E) 05:44:10 145.980 - 146.000
FO-29 23 Jan 05:44:07 05:47:58 18° 50° (NE) 05:51:36 435.910
CUTE-I 23 Jan 05:51:14 05:54:49 18° 87° (E) 05:58:24 437.470
XW-2D 23 Jan 05:52:16 05:54:51 17° 90° (E) 05:57:24 145.860 - 145.880
XW-2B 23 Jan 06:09:36 06:12:43 24° 93° (E) 06:15:49 145.730 - 145.750
HO-68 23 Jan 06:12:56 06:17:41 18° 85° (E) 06:22:23 435.675
DOVE 4 23 Jan 06:17:38 06:21:50 52° 290° (WNW) 06:26:13 437.250
M-CUBED/EXP-1 PRIME 23 Jan 06:20:51 06:24:16 83° 295° (WNW) 06:27:32 437.505
CUTE 1.7 + AOD 2 23 Jan 06:36:16 06:39:05 17° 89° (E) 06:41:53 437.475
XW-2C 23 Jan 06:39:47 06:43:28 50° 100° (E) 06:47:06 145.795 - 145.815
LilacSat-2 23 Jan 06:40:56 06:44:41 55° 100° (E) 06:48:23 437.200
STRAND 1 23 Jan 06:49:08 06:54:12 71° 70° (ENE) 06:59:19 437.568
RS-15 23 Jan 06:50:16 06:59:06 24° 99° (E) 07:07:49 29.354- 29.394
SO-50 23 Jan 06:52:44 06:57:12 65° 319° (NW) 07:01:48 436.795
AO-7 23 Jan 06:54:19 07:01:19 31° 316° (NW) 07:08:18 .
KAITUO 1B 23 Jan 07:07:05 07:10:47 71° 103° (ESE) 07:14:27 145.475/437.950
YUBILEINY 23 Jan 07:11:40 07:15:40 14° 34° (NNE) 07:19:39 435.215
NUDT-PHONESAT 23 Jan 07:13:08 07:16:50 78° 104° (ESE) 07:20:29 437.300
XW-2F 23 Jan 07:13:30 07:17:16 77° 286° (WNW) 07:20:58 145.980 - 146.000
CUBEBUG 2 23 Jan 07:14:45 07:18:56 30° 93° (E) 07:23:05 437.445
UWE-3 23 Jan 07:15:03 07:18:22 19° 88° (E) 07:21:38 435.000/436.395/437.385
STARS 23 Jan 07:15:27 07:17:49 14° 273° (W) 07:20:11 437.465
ITAMSAT 1 23 Jan 07:20:13 07:22:02 12° 316° (NW) 07:23:52 435.822/435.867
TIGRISAT 23 Jan 07:24:58 07:26:00 11° 48° (NE) 07:27:04 435.000
XW-2D 23 Jan 07:25:39 07:29:20 52° 289° (WNW) 07:32:58 145.860 - 145.880
FO-29 23 Jan 07:25:53 07:32:19 70° 70° (ENE) 07:38:02 435.910
AAUSAT CUBESAT 2 23 Jan 07:27:33 07:30:06 16° 88° (E) 07:32:38 437.432
O/OREOS (USA 219) 23 Jan 07:29:19 07:31:22 13° 29° (NNE) 07:33:25 437.305
CUTE-I 23 Jan 07:30:13 07:35:35 87° 287° (WNW) 07:40:55 437.470
ZACube-1 23 Jan 07:33:07 07:35:49 15° 86° (E) 07:38:29 437.345
AO-73 23 Jan 07:38:15 07:40:53 15° 86° (E) 07:43:29 145.935
UNISAT 6 23 Jan 07:39:17 07:41:47 15° 52° (NE) 07:44:18 437.425
XW-2B 23 Jan 07:43:30 07:47:00 36° 293° (WNW) 07:50:27 145.730 - 145.750
SEEDS 23 Jan 07:53:14 07:57:20 56° 100° (E) 08:01:25 437.485
M-CUBED/EXP-1 PRIME 23 Jan 07:56:59 07:58:04 11° 313° (NW) 07:59:09 437.505
HO-68 23 Jan 07:59:27 08:06:39 75° 106° (ESE) 08:13:49 435.675
Oscar 11 23 Jan 08:08:14 08:11:10 17° 89° (E) 08:14:05 .
CUTE 1.7 + AOD 2 23 Jan 08:11:10 08:15:21 65° 288° (WNW) 08:19:30 437.475
XW-2C 23 Jan 08:14:34 08:17:21 20° 299° (WNW) 08:20:05 145.795 - 145.815
LilacSat-2 23 Jan 08:15:57 08:18:36 18° 300° (WNW) 08:21:15 437.200
XW-2A 23 Jan 08:25:14 08:28:28 42° 99° (E) 08:31:39 145.665 - 145.685
STRAND 1 23 Jan 08:30:04 08:33:54 21° 270° (W) 08:37:48 437.568
SO-50 23 Jan 08:34:42 08:38:28 25° 342° (NNW) 08:42:17 436.795
PRISM 23 Jan 08:37:45 08:39:16 12° 52° (NE) 08:40:48 437.425
KAITUO 1B 23 Jan 08:42:11 08:44:17 15° 302° (WNW) 08:46:23 145.475/437.950
AO-7 23 Jan 08:47:31 08:51:34 15° 342° (NNW) 08:55:38 .
NUDT-PHONESAT 23 Jan 08:48:15 08:50:09 14° 303° (WNW) 08:52:02 437.300
XW-2F 23 Jan 08:49:36 08:50:42 11° 305° (NW) 08:51:46 145.980 - 146.000
UWE-3 23 Jan 08:50:37 08:55:19 71° 288° (WNW) 08:59:55 435.000/436.395/437.385
CUBEBUG 2 23 Jan 08:51:09 08:55:42 46° 293° (WNW) 09:00:14 437.445
RS-15 23 Jan 08:57:16 09:09:28 71° 124° (SE) 09:21:23 29.354- 29.394
TIGRISAT 23 Jan 08:57:18 09:01:40 52° 69° (ENE) 09:06:10 435.000
AAUSAT CUBESAT 2 23 Jan 09:01:55 09:06:01 68° 288° (WNW) 09:10:05 437.432
YUBILEINY 23 Jan 09:07:33 09:15:42 40° 63° (ENE) 09:23:45 435.215
O/OREOS (USA 219) 23 Jan 09:07:39 09:11:58 44° 52° (NE) 09:16:16 437.305
ZACube-1 23 Jan 09:08:07 09:12:44 84° 284° (WNW) 09:17:14 437.345
CUTE-I 23 Jan 09:11:15 09:14:58 20° 308° (NW) 09:18:42 437.470
FO-29 23 Jan 09:12:36 09:17:52 26° 268° (W) 09:22:41 435.910
AO-73 23 Jan 09:13:10 09:17:45 84° 288° (WNW) 09:22:14 145.935
UNISAT 6 23 Jan 09:13:15 09:17:44 77° 72° (ENE) 09:22:21 437.425
DELFI C3 23 Jan 09:13:30 09:15:53 15° 89° (E) 09:18:15 145.870
Max Valier Satellite 23 Jan 09:19:18 09:20:32 11° 86° (E) 09:21:46 145.860
AIST 2D 23 Jan 09:23:49 09:25:08 12° 57° (ENE) 09:26:28 435.315
SEEDS 23 Jan 09:29:33 09:32:43 21° 300° (WNW) 09:35:51 437.485
EO-88 23 Jan 09:32:21 09:32:33 10° 86° (E) 09:32:46 145.990 - 145.960
BEESAT 3 23 Jan 09:35:46 09:39:16 30° 121° (ESE) 09:42:48 437.485
Oscar 11 23 Jan 09:43:27 09:47:46 67° 288° (WNW) 09:52:03 .
HO-68 23 Jan 09:47:43 09:53:54 33° 308° (NW) 10:00:04 435.675
CUTE 1.7 + AOD 2 23 Jan 09:49:02 09:50:23 11° 308° (NW) 09:51:45 437.475
PCSat 23 Jan 09:55:12 10:00:17 42° 118° (ESE) 10:05:23 145.827
XW-2A 23 Jan 09:58:30 10:00:54 18° 298° (WNW) 10:03:16 145.665 - 145.685
DUCHIFAT 1 23 Jan 10:00:42 10:02:04 11° 51° (NE) 10:03:27 145.980
EO-79 23 Jan 10:04:18 10:06:43 15° 55° (NE) 10:09:09 145.935-145.965
PRISM 23 Jan 10:09:47 10:13:48 72° 73° (ENE) 10:17:53 437.425
SO-50 23 Jan 10:16:50 10:20:19 21° 7° (N) 10:23:51 436.795
UWE-3 23 Jan 10:28:32 10:30:58 14° 308° (NW) 10:33:23 435.000/436.395/437.385
BEESAT 2 23 Jan 10:30:34 10:34:07 30° 121° (ESE) 10:37:41 435.950
TIGRISAT 23 Jan 10:35:00 10:38:40 24° 269° (W) 10:42:24 435.000
AO-7 23 Jan 10:37:38 10:40:59 13° 10° (N) 10:44:20 .
POLYITAN 1 23 Jan 10:38:34 10:42:10 27° 62° (ENE) 10:45:48 437.675
AAUSAT CUBESAT 2 23 Jan 10:39:21 10:40:43 11° 307° (NW) 10:42:04 437.432
ZACube-1 23 Jan 10:45:36 10:48:19 16° 306° (NW) 10:51:00 437.345
DELFI C3 23 Jan 10:47:08 10:51:02 65° 288° (WNW) 10:54:56 145.870
O/OREOS (USA 219) 23 Jan 10:47:20 10:51:14 30° 253° (WSW) 10:55:07 437.305
ESTCUBE 1 23 Jan 10:48:51 10:50:09 11° 84° (E) 10:51:26 437.505/2401.250
AO-73 23 Jan 10:50:36 10:53:17 16° 306° (NW) 10:55:58 145.935
Max Valier Satellite 23 Jan 10:51:10 10:54:54 82° 286° (WNW) 10:58:35 145.860
NANOSAT C BR1 23 Jan 10:51:17 10:55:01 31° 63° (ENE) 10:58:46 145.865
UNISAT 6 23 Jan 10:52:07 10:55:01 17° 273° (W) 10:57:59 437.425
AIST 2D 23 Jan 10:54:14 10:57:45 86° 257° (WSW) 11:01:16 435.315
Oscar 19 23 Jan 10:56:44 10:58:34 12° 45° (NE) 11:00:25 437.125/150
EO-88 23 Jan 11:03:07 11:06:47 89° 270° (W) 11:10:24 145.990 - 145.960
YUBILEINY 23 Jan 11:04:28 11:13:03 64° 267° (W) 11:21:34 435.215
Gurwin Techsat 1B 23 Jan 11:05:24 11:07:06 12° 43° (NE) 11:08:49 435.225
QB50P2 23 Jan 11:07:53 11:12:00 52° 69° (ENE) 11:16:11 145.880/145.840
RS-15 23 Jan 11:10:24 11:22:35 60° 332° (NNW) 11:34:22 29.354- 29.394
BEESAT 3 23 Jan 11:12:47 11:16:40 49° 321° (NW) 11:20:33 437.485
Oscar 11 23 Jan 11:21:24 11:23:06 12° 308° (NW) 11:24:49 .
DUCHIFAT 1 23 Jan 11:32:45 11:36:54 63° 72° (ENE) 11:41:08 145.980
HO-68 23 Jan 11:37:11 11:39:35 12° 332° (NNW) 11:41:59 435.675
EO-79 23 Jan 11:37:36 11:41:51 88° 76° (ENE) 11:46:09 145.935-145.965
PCSat 23 Jan 11:38:24 11:43:40 49° 319° (NW) 11:48:58 145.827
SPROUT 23 Jan 11:47:08 11:47:59 10° 84° (E) 11:48:51 437.525
PRISM 23 Jan 11:47:12 11:49:34 15° 271° (W) 11:51:57 437.425
SO-50 23 Jan 11:57:37 12:01:57 37° 30° (NNE) 12:06:21 436.795
AO-85 23 Jan 11:58:20 12:01:58 32° 121° (ESE) 12:05:52 145.980
BEESAT 2 23 Jan 12:07:45 12:11:41 49° 321° (NW) 12:15:39 435.950
VELOX 1 23 Jan 12:12:20 12:13:16 11° 84° (E) 12:14:10 145.980
LO-87 23 Jan 12:13:07 12:16:47 82° 106° (ESE) 12:20:25 145.935 - 145.965
POLYITAN 1 23 Jan 12:13:43 12:17:47 43° 262° (W) 12:21:54 437.675
BUGSAT 1 23 Jan 12:22:49 12:26:49 53° 69° (ENE) 12:30:55 437.445
ESTCUBE 1 23 Jan 12:23:16 12:27:46 74° 103° (ESE) 12:32:15 437.505/2401.250
DELFI C3 23 Jan 12:24:20 12:25:01 10° 307° (NW) 12:25:41 145.870
AO-7 23 Jan 12:24:37 12:30:54 25° 37° (NE) 12:37:11 .
NANOSAT C BR1 23 Jan 12:26:44 12:30:39 37° 263° (W) 12:34:37 145.865
Max Valier Satellite 23 Jan 12:26:49 12:28:04 11° 305° (NW) 12:29:19 145.860
AO-91 23 Jan 12:31:19 12:34:31 37° 67° (ENE) 12:37:58 145.960
Oscar 19 23 Jan 12:31:46 12:36:46 49° 66° (ENE) 12:41:46 437.125/150
EO-88 23 Jan 12:38:25 12:39:49 12° 304° (NW) 12:41:12 145.990 - 145.960
Gurwin Techsat 1B 23 Jan 12:40:49 12:45:51 46° 65° (ENE) 12:50:55 435.225
QB50P2 23 Jan 12:44:47 12:48:05 22° 269° (W) 12:51:26 145.880/145.840
BEESAT 3 23 Jan 12:52:09 12:55:02 19° 344° (NNW) 12:57:54 437.485
YUBILEINY 23 Jan 13:03:07 13:08:02 17° 291° (WNW) 13:12:57 435.215
DUCHIFAT 1 23 Jan 13:10:04 13:13:00 18° 271° (W) 13:15:56 145.980
EO-79 23 Jan 13:16:14 13:18:14 13° 274° (W) 13:20:17 145.935-145.965
SPROUT 23 Jan 13:20:20 13:24:40 74° 104° (ESE) 13:28:57 437.525
PCSat 23 Jan 13:24:08 13:28:19 22° 344° (NNW) 13:32:30 145.827
RS-15 23 Jan 13:25:56 13:37:38 48° 5° (N) 13:48:48 29.354- 29.394
SO-50 23 Jan 13:38:04 13:42:41 60° 232° (SW) 13:47:22 436.795
AO-85 23 Jan 13:38:12 13:42:14 49° 323° (NW) 13:46:38 145.980
VELOX 1 23 Jan 13:46:06 13:50:31 73° 104° (ESE) 13:54:54 145.980
ITAMSAT 1 23 Jan 13:46:09 13:49:45 20° 52° (NE) 13:53:22 435.822/435.867
BEESAT 2 23 Jan 13:47:18 13:50:15 19° 344° (NNW) 13:53:13 435.950
LO-87 23 Jan 13:47:54 13:49:38 13° 303° (WNW) 13:51:21 145.935 - 145.965
DX 1 23 Jan 13:53:24 13:56:46 21° 92° (E) 14:00:08 434.975-435.025
BUGSAT 1 23 Jan 13:59:22 14:02:30 21° 269° (W) 14:05:39 437.445
ESTCUBE 1 23 Jan 14:00:56 14:04:06 19° 303° (WNW) 14:07:16 437.505/2401.250
AO-91 23 Jan 14:08:36 14:11:14 20° 268° (W) 14:14:02 145.960
50 SAT 23 Jan 14:11:17 14:13:50 23° 95° (E) 14:16:23 437.505
Oscar 19 23 Jan 14:11:40 14:16:17 32° 266° (W) 14:20:56 437.125/150
AO-7 23 Jan 14:14:04 14:22:17 65° 61° (ENE) 14:30:34 .
Gurwin Techsat 1B 23 Jan 14:21:08 14:25:57 34° 265° (W) 14:30:49 435.225
MOZHAYETS 4 23 Jan 14:30:52 14:32:50 12° 84° (E) 14:34:48
BEESAT 3 23 Jan 14:31:22 14:33:54 16° 8° (N) 14:36:25 437.485
SPROUT 23 Jan 14:57:08 15:00:04 18° 303° (WNW) 15:03:00 437.525
BEESAT 23 Jan 15:05:18 15:08:05 15° 87° (E) 15:10:53 436.000
HO-68 23 Jan 15:06:49 15:08:40 11° 26° (NNE) 15:10:31 435.675
PCSat 23 Jan 15:09:39 15:13:37 20° 10° (N) 15:17:34 145.827
UKube-1 23 Jan 15:10:30 15:14:49 68° 104° (ESE) 15:19:06 .
AO-85 23 Jan 15:20:15 15:23:39 22° 347° (NNW) 15:27:16 145.980
SO-50 23 Jan 15:20:43 15:22:16 11° 251° (WSW) 15:23:50 436.795
VELOX 1 23 Jan 15:23:24 15:26:30 19° 303° (WNW) 15:29:36 145.980
ITAMSAT 1 23 Jan 15:23:24 15:28:35 88° 72° (ENE) 15:33:48 435.822/435.867
BEESAT 2 23 Jan 15:26:41 15:29:20 17° 8° (N) 15:31:59 435.950
DX 1 23 Jan 15:29:01 15:33:16 55° 292° (WNW) 15:37:31 434.975-435.025
M-CUBED/EXP-1 PRIME 23 Jan 15:37:15 15:41:12 45° 62° (ENE) 15:44:53 437.505
RS-15 23 Jan 15:40:13 15:52:15 71° 37° (NE) 16:03:35 29.354- 29.394
CUTE-I 23 Jan 15:42:39 15:44:52 13° 45° (NE) 15:47:05 437.470
50 SAT 23 Jan 15:42:50 15:45:32 27° 294° (WNW) 15:48:13 437.505
DOVE 4 23 Jan 15:51:51 15:55:48 43° 68° (ENE) 15:59:45 437.250
LilacSat-2 23 Jan 15:57:45 15:58:26 10° 54° (NE) 15:59:07 437.200
ITUPSAT 1 23 Jan 16:04:12 16:08:51 44° 99° (E) 16:13:27 437.325
MOZHAYETS 4 23 Jan 16:06:07 16:10:47 79° 105° (ESE) 16:15:24
BEESAT 3 23 Jan 16:08:57 16:12:32 31° 31° (NNE) 16:16:03 437.485
